Le nostre stazioni meteo in Italia

Pubblicità
Il mio iltempo24.it
Siracusa, Italia (16464): Temperatura & dewpoint: 17.08.2017 10:00:00 - 23.08.2017 10:00:00 (CEST)Siracusa, Italia (16464): velocità del vento: 17.08.2017 10:00:00 - 23.08.2017 10:00:00 (CEST)Siracusa, Italia (16464): direzione del vento: 17.08.2017 10:00:00 - 23.08.2017 10:00:00 (CEST)Siracusa, Italia (16464): reduced air pressure: 17.08.2017 10:00:00 - 23.08.2017 10:00:00 (CEST)Siracusa, Italia (16464): precipitazioni: 17.08.2017 10:00:00 - 23.08.2017 10:00:00 (CEST)
Data & Tempo tt [°C] td [°C] ff [km/h] ff [kn] dd ppp [hPa] rr [mm]
23.08.2017 10:00:00 - - - - - - -
23.08.2017 09:00:00 26,1 21,3 9 5 NNO 1016,9 -
23.08.2017 08:00:00 24,4 21,1 2 1 ONO 1016,5 0,0
23.08.2017 07:00:00 23,4 19,9 4 2 ONO 1016,3 -
23.08.2017 06:00:00 23,5 19,8 5 3 NO 1015,8 -
23.08.2017 05:00:00 24,0 19,7 2 1 ONO 1015,6 -
23.08.2017 04:00:00 25,0 20,2 4 2 ONO 1015,4 -
23.08.2017 03:00:00 25,7 20,7 2 1 OSO 1015,7 -
23.08.2017 02:00:00 25,9 20,6 4 2 S 1015,7 0,0
23.08.2017 01:00:00 25,9 20,6 5 3 SSE 1015,9 -
23.08.2017 00:00:00 25,9 20,2 8 4 SE 1016,0 -
22.08.2017 23:00:00 26,3 19,9 8 4 SSE 1015,9 -
22.08.2017 22:00:00 26,5 19,1 8 4 SE 1015,8 -
22.08.2017 21:00:00 26,7 18,5 5 3 ESE 1015,5 -
22.08.2017 20:00:00 27,0 18,5 11 6 SSE 1015,0 0,0
22.08.2017 19:00:00 27,4 18,9 11 6 S 1014,9 -
22.08.2017 18:00:00 27,7 18,6 13 7 S 1015,0 -
22.08.2017 17:00:00 27,8 18,4 15 8 S 1015,2 -
22.08.2017 16:00:00 28,4 19,0 18 10 S 1015,2 -
22.08.2017 15:00:00 28,5 19,1 15 8 SE 1015,6 -
22.08.2017 14:00:00 28,5 19,1 15 8 SSE 1015,9 0,0
22.08.2017 13:00:00 27,9 19,4 11 6 SE 1016,2 -
22.08.2017 12:00:00 27,0 20,8 8 4 SE 1016,3 -
22.08.2017 11:00:00 24,7 19,9 2 1 NNE 1016,7 -
22.08.2017 10:00:00 26,3 21,5 8 4 ENE 1016,0 -
22.08.2017 09:00:00 25,5 22,9 2 1 E 1015,8 -
22.08.2017 08:00:00 24,1 21,0 13 7 N 1015,6 0,0
22.08.2017 07:00:00 23,5 20,0 4 2 ONO 1015,5 -
22.08.2017 06:00:00 23,5 19,6 0 0 N 1014,9 -
22.08.2017 05:00:00 23,9 19,3 2 1 NO 1014,4 -
22.08.2017 04:00:00 24,9 20,1 2 1 NO 1014,1 -
22.08.2017 03:00:00 26,2 21,4 4 2 ENE 1014,2 -
22.08.2017 02:00:00 26,3 21,5 4 2 ENE 1014,3 0,0
22.08.2017 01:00:00 26,4 22,0 4 2 E 1014,6 -
22.08.2017 00:00:00 26,5 22,1 5 3 ESE 1014,6 -
21.08.2017 23:00:00 26,7 22,1 4 2 SE 1014,4 -
21.08.2017 22:00:00 26,8 21,9 5 3 SSE 1014,0 -
21.08.2017 21:00:00 26,9 22,3 4 2 SSE 1013,6 -
21.08.2017 20:00:00 27,0 22,1 9 5 S 1013,2 0,0
21.08.2017 19:00:00 27,3 22,2 9 5 SSE 1012,5 -
21.08.2017 18:00:00 27,6 22,3 8 4 SE 1012,5 -
21.08.2017 17:00:00 27,7 22,1 9 5 SSE 1012,5 -
21.08.2017 16:00:00 28,0 22,0 11 6 ESE 1012,5 -
21.08.2017 15:00:00 29,1 22,8 9 5 NO 1012,9 -
21.08.2017 14:00:00 28,6 22,5 13 7 E 1013,3 0,0
21.08.2017 13:00:00 28,6 22,3 13 7 E 1013,6 -
21.08.2017 12:00:00 27,9 21,9 13 7 ENE 1013,7 -
21.08.2017 11:00:00 28,2 22,2 11 6 ENE 1013,7 -
21.08.2017 10:00:00 27,8 22,5 11 6 ENE 1013,4 -
21.08.2017 09:00:00 27,4 22,1 8 4 ENE 1013,0 -
21.08.2017 08:00:00 27,6 21,6 5 3 NNE 1012,6 0,0
21.08.2017 07:00:00 26,6 21,7 5 3 N 1012,4 -
21.08.2017 06:00:00 26,4 21,8 15 8 N 1011,8 -
21.08.2017 05:00:00 26,7 21,2 13 7 N 1011,8 -
21.08.2017 04:00:00 26,4 21,6 5 3 N 1011,7 -
21.08.2017 03:00:00 27,0 22,1 9 5 N 1011,8 -
21.08.2017 02:00:00 26,9 21,4 8 4 N 1011,7 0,0
21.08.2017 01:00:00 25,9 15,2 4 2 NO 1011,8 -
21.08.2017 00:00:00 27,8 17,6 2 1 O 1012,2 -
20.08.2017 23:00:00 28,9 17,7 2 1 O 1012,3 -
20.08.2017 22:00:00 29,5 17,6 4 2 NO 1012,3 -
20.08.2017 21:00:00 29,9 17,0 5 3 N 1012,1 -
20.08.2017 20:00:00 30,6 16,6 5 3 NNO 1011,9 0,0
20.08.2017 19:00:00 31,1 19,1 13 7 N 1011,8 -
20.08.2017 18:00:00 29,9 22,0 15 8 NNE 1011,6 -
20.08.2017 17:00:00 30,6 23,5 16 9 NE 1011,7 -
20.08.2017 16:00:00 31,4 23,7 11 6 E 1011,7 -
20.08.2017 15:00:00 32,3 22,1 11 6 SE 1012,2 -
20.08.2017 14:00:00 31,8 21,3 9 5 ESE 1013,0 0,0
20.08.2017 13:00:00 31,0 22,0 9 5 SE 1013,6 -
20.08.2017 12:00:00 29,4 21,6 9 5 ESE 1014,1 -
20.08.2017 11:00:00 28,9 21,4 9 5 E 1014,4 -
20.08.2017 10:00:00 29,0 20,1 5 3 E 1014,1 -
20.08.2017 09:00:00 28,5 17,9 4 2 ESE 1014,1 -
20.08.2017 08:00:00 24,0 15,4 4 2 N 1014,0 0,0
20.08.2017 07:00:00 22,5 14,0 0 0 N 1014,1 -
20.08.2017 06:00:00 22,4 13,6 4 2 ONO 1013,8 -
20.08.2017 05:00:00 22,9 13,8 5 3 ONO 1013,8 -
20.08.2017 04:00:00 23,5 14,1 2 1 NO 1014,0 -
20.08.2017 03:00:00 24,8 15,6 4 2 ONO 1014,3 -
20.08.2017 02:00:00 26,6 18,9 4 2 ONO 1014,5 0,0
20.08.2017 01:00:00 27,4 20,9 4 2 N 1014,9 -
20.08.2017 00:00:00 27,5 21,9 2 1 O 1015,2 -
19.08.2017 23:00:00 27,5 22,6 8 4 N 1015,3 -
19.08.2017 22:00:00 27,7 23,2 5 3 E 1015,3 -
19.08.2017 21:00:00 29,4 22,8 9 5 ONO 1014,8 -
19.08.2017 20:00:00 32,1 17,9 9 5 SO 1014,0 0,0
19.08.2017 19:00:00 31,0 23,1 13 7 S 1013,9 -
19.08.2017 18:00:00 30,7 23,3 21 11 S 1014,2 -
19.08.2017 17:00:00 30,9 22,5 21 11 S 1014,4 -
19.08.2017 16:00:00 31,5 21,9 16 9 S 1014,9 -
19.08.2017 15:00:00 31,4 21,8 8 4 SSE 1015,4 -
19.08.2017 14:00:00 31,4 22,4 8 4 ESE 1015,9 0,0
19.08.2017 13:00:00 31,4 20,9 9 5 E 1015,9 -
19.08.2017 12:00:00 32,5 17,5 5 3 N 1016,0 -
19.08.2017 11:00:00 31,5 15,9 8 4 N 1016,1 -
19.08.2017 10:00:00 30,4 17,1 8 4 N 1016,1 -
19.08.2017 09:00:00 28,7 18,4 5 3 NNO 1016,0 -
19.08.2017 08:00:00 24,3 17,0 2 1 S 1015,7 0,0
19.08.2017 07:00:00 22,6 14,9 2 1 NO 1015,3 -
19.08.2017 06:00:00 22,8 15,3 2 1 NNO 1014,8 -
19.08.2017 05:00:00 23,1 15,6 4 2 ONO 1014,9 -
19.08.2017 04:00:00 23,3 15,5 2 1 ONO 1015,0 -
19.08.2017 03:00:00 23,9 15,6 2 1 ONO 1015,1 -
19.08.2017 02:00:00 24,5 15,6 0 0 N 1015,5 0,0
19.08.2017 01:00:00 25,0 15,3 2 1 NO 1016,0 -
19.08.2017 00:00:00 25,5 15,4 5 3 ONO 1016,1 -
18.08.2017 23:00:00 27,1 18,1 2 1 O 1016,2 -
18.08.2017 22:00:00 28,5 17,6 2 1 O 1016,2 -
18.08.2017 21:00:00 29,0 18,1 2 1 SSO 1015,9 -
18.08.2017 20:00:00 30,0 18,1 8 4 SSO 1015,5 0,0
18.08.2017 19:00:00 30,5 19,5 9 5 S 1015,4 -
18.08.2017 18:00:00 30,6 19,6 11 6 S 1015,5 -
18.08.2017 17:00:00 31,3 16,8 9 5 SSE 1015,7 -
18.08.2017 16:00:00 31,0 19,0 11 6 SSE 1015,8 -
18.08.2017 15:00:00 31,7 17,6 9 5 S 1016,2 -
18.08.2017 14:00:00 32,4 16,7 5 3 SE 1016,5 0,0
18.08.2017 13:00:00 31,6 15,9 8 4 E 1016,8 -
18.08.2017 12:00:00 30,7 18,4 11 6 NNE 1017,1 -
18.08.2017 11:00:00 30,1 18,8 13 7 NNE 1016,9 -
18.08.2017 10:00:00 28,6 20,6 16 9 N 1016,8 -
18.08.2017 09:00:00 27,5 21,2 16 9 N 1016,4 -
18.08.2017 08:00:00 26,7 20,5 15 8 N 1016,0 0,0
18.08.2017 07:00:00 26,0 19,1 15 8 N 1015,4 -
18.08.2017 06:00:00 25,8 18,9 13 7 N 1015,3 -
18.08.2017 05:00:00 25,6 19,7 15 8 N 1015,2 -
18.08.2017 04:00:00 26,0 20,9 15 8 N 1015,2 -
18.08.2017 03:00:00 26,0 21,2 9 5 N 1015,2 -
18.08.2017 02:00:00 25,1 18,9 4 2 O 1015,4 0,0
18.08.2017 01:00:00 26,6 21,5 11 6 N 1015,3 -
18.08.2017 00:00:00 26,9 21,8 9 5 NNO 1015,5 -
17.08.2017 23:00:00 27,8 20,1 5 3 NE 1015,5 -
17.08.2017 22:00:00 28,0 19,7 2 1 N 1015,6 -
17.08.2017 21:00:00 28,4 20,9 2 1 E 1015,1 -
17.08.2017 20:00:00 28,7 20,6 5 3 SSE 1014,9 0,0
17.08.2017 19:00:00 29,4 22,3 5 3 SE 1014,6 -
17.08.2017 18:00:00 29,8 21,7 9 5 ESE 1014,5 -
17.08.2017 17:00:00 29,9 22,3 9 5 E 1014,6 -
17.08.2017 16:00:00 29,8 21,4 11 6 E 1014,8 -
17.08.2017 15:00:00 30,6 21,1 9 5 ESE 1015,0 -
17.08.2017 14:00:00 30,0 19,9 11 6 E 1015,3 0,0
17.08.2017 13:00:00 30,6 18,0 11 6 NE 1015,4 -
17.08.2017 12:00:00 30,1 19,1 18 10 NNE 1015,5 -
17.08.2017 11:00:00 29,5 20,0 16 9 N 1015,7 -
17.08.2017 10:00:00 29,4 19,1 5 3 NNE 1015,9 -

tt = Temperatura
td = dewpoint
ff = velocità del vento
dd = direzione del vento
ppp = reduced air pressure
rr = precipitazioni

Stazioni seguenti

WeatherPro
AMSI
MeteoEarth